Year,Month,Day,Hour,Minute,Value (Times are PST for temperature in C)
2016,05,06,00,00,13.40
2016,05,06,00,01,13.40
2016,05,06,00,02,13.30
2016,05,06,00,03,13.30
2016,05,06,00,04,13.30
2016,05,06,00,05,13.30
2016,05,06,00,06,13.30
2016,05,06,00,07,13.20
2016,05,06,00,08,13.20
2016,05,06,00,09,13.20
2016,05,06,00,10,13.10
2016,05,06,00,11,13.10
2016,05,06,00,12,13.10
2016,05,06,00,13,13.10
2016,05,06,00,14,13.10
2016,05,06,00,15,13.10
2016,05,06,00,16,13.10
2016,05,06,00,17,13.00
2016,05,06,00,18,13.00
2016,05,06,00,19,13.00
2016,05,06,00,20,12.90
2016,05,06,00,21,12.90
2016,05,06,00,22,12.90
2016,05,06,00,23,12.80
2016,05,06,00,24,12.80
2016,05,06,00,25,12.80
2016,05,06,00,26,12.80
2016,05,06,00,27,12.80
2016,05,06,00,28,12.80
2016,05,06,00,29,12.80
2016,05,06,00,30,12.80
2016,05,06,00,31,12.70
2016,05,06,00,32,12.70
2016,05,06,00,33,12.70
2016,05,06,00,34,12.70
2016,05,06,00,35,12.70
2016,05,06,00,36,12.70
2016,05,06,00,37,12.70
2016,05,06,00,38,12.60
2016,05,06,00,39,12.60
2016,05,06,00,40,12.60
2016,05,06,00,41,12.50
2016,05,06,00,42,12.50
2016,05,06,00,43,12.40
2016,05,06,00,44,12.40
2016,05,06,00,45,12.40
2016,05,06,00,46,12.40
2016,05,06,00,47,12.30
2016,05,06,00,48,12.30
2016,05,06,00,49,12.30
2016,05,06,00,50,12.30
2016,05,06,00,51,12.30
2016,05,06,00,52,12.30
2016,05,06,00,53,12.30
2016,05,06,00,54,12.20
2016,05,06,00,55,12.20
2016,05,06,00,56,12.20
2016,05,06,00,57,12.20
2016,05,06,00,58,12.20
2016,05,06,00,59,12.20
2016,05,06,01,00,12.10
2016,05,06,01,01,12.10
2016,05,06,01,02,12.10
2016,05,06,01,03,12.10
2016,05,06,01,04,12.10
2016,05,06,01,05,12.10
2016,05,06,01,06,12.10
2016,05,06,01,07,12.10
2016,05,06,01,08,12.10
2016,05,06,01,09,12.10
2016,05,06,01,10,12.10
2016,05,06,01,11,12.10
2016,05,06,01,12,12.10
2016,05,06,01,13,12.00
2016,05,06,01,14,12.00
2016,05,06,01,15,12.00
2016,05,06,01,16,12.00
2016,05,06,01,17,12.00
2016,05,06,01,18,12.00
2016,05,06,01,19,11.90
2016,05,06,01,20,11.90
2016,05,06,01,21,11.90
2016,05,06,01,22,11.90
2016,05,06,01,23,11.90
2016,05,06,01,24,11.90
2016,05,06,01,25,11.90
2016,05,06,01,26,11.90
2016,05,06,01,27,11.90
2016,05,06,01,28,11.90
2016,05,06,01,29,11.90
2016,05,06,01,30,11.90
2016,05,06,01,31,11.90
2016,05,06,01,32,11.80
2016,05,06,01,33,11.80
2016,05,06,01,34,11.80
2016,05,06,01,35,11.70
2016,05,06,01,36,11.70
2016,05,06,01,37,11.70
2016,05,06,01,38,11.70
2016,05,06,01,39,11.70
2016,05,06,01,40,11.70
2016,05,06,01,41,11.60
2016,05,06,01,42,11.60
2016,05,06,01,43,11.60
2016,05,06,01,44,11.60
2016,05,06,01,45,11.60
2016,05,06,01,46,11.60
2016,05,06,01,47,11.60
2016,05,06,01,48,11.60
2016,05,06,01,49,11.60
2016,05,06,01,50,11.50
2016,05,06,01,51,11.50
2016,05,06,01,52,11.50
2016,05,06,01,53,11.50
2016,05,06,01,54,11.50
2016,05,06,01,55,11.40
2016,05,06,01,56,11.40
2016,05,06,01,57,11.40
2016,05,06,01,58,11.40
2016,05,06,01,59,11.40
2016,05,06,02,00,11.40
2016,05,06,02,01,11.40
2016,05,06,02,02,11.40
2016,05,06,02,03,11.40
2016,05,06,02,04,11.40
2016,05,06,02,05,11.40
2016,05,06,02,06,11.40
2016,05,06,02,07,11.40
2016,05,06,02,08,11.40
2016,05,06,02,09,11.50
2016,05,06,02,10,11.50
2016,05,06,02,11,11.50
2016,05,06,02,12,11.50
2016,05,06,02,13,11.50
2016,05,06,02,14,11.50
2016,05,06,02,15,11.50
2016,05,06,02,16,11.50
2016,05,06,02,17,11.50
2016,05,06,02,18,11.50
2016,05,06,02,19,11.50
2016,05,06,02,20,11.50
2016,05,06,02,21,11.50
2016,05,06,02,22,11.50
2016,05,06,02,23,11.40
2016,05,06,02,24,11.40
2016,05,06,02,25,11.40
2016,05,06,02,26,11.40
2016,05,06,02,27,11.40
2016,05,06,02,28,11.40
2016,05,06,02,29,11.40
2016,05,06,02,30,11.40
2016,05,06,02,31,11.40
2016,05,06,02,32,11.40
2016,05,06,02,33,11.40
2016,05,06,02,34,11.30
2016,05,06,02,35,11.30
2016,05,06,02,36,11.30
2016,05,06,02,37,11.30
2016,05,06,02,38,11.30
2016,05,06,02,39,11.30
2016,05,06,02,40,11.30
2016,05,06,02,41,11.20
2016,05,06,02,42,11.20
2016,05,06,02,43,11.20
2016,05,06,02,44,11.20
2016,05,06,02,45,11.20
2016,05,06,02,46,11.20
2016,05,06,02,47,11.10
2016,05,06,02,48,11.10
2016,05,06,02,49,11.10
2016,05,06,02,50,11.10
2016,05,06,02,51,11.10
2016,05,06,02,52,11.10
2016,05,06,02,53,11.10
2016,05,06,02,54,11.00
2016,05,06,02,55,11.00
2016,05,06,02,56,11.00
2016,05,06,02,57,10.90
2016,05,06,02,58,10.90
2016,05,06,02,59,10.90
2016,05,06,03,00,10.90
2016,05,06,03,01,11.00
2016,05,06,03,02,11.00
2016,05,06,03,03,11.00
2016,05,06,03,04,11.00
2016,05,06,03,05,11.00
2016,05,06,03,06,11.00
2016,05,06,03,07,11.00
2016,05,06,03,08,11.00
2016,05,06,03,09,11.00
2016,05,06,03,10,11.00
2016,05,06,03,11,11.00
2016,05,06,03,12,11.00
2016,05,06,03,13,11.00
2016,05,06,03,14,11.00
2016,05,06,03,15,11.00
2016,05,06,03,16,11.00
2016,05,06,03,17,11.00
2016,05,06,03,18,11.00
2016,05,06,03,19,11.00
2016,05,06,03,20,11.00
2016,05,06,03,21,11.00
2016,05,06,03,22,10.90
2016,05,06,03,23,10.90
2016,05,06,03,24,10.90
2016,05,06,03,25,10.90
2016,05,06,03,26,10.90
2016,05,06,03,27,10.90
2016,05,06,03,28,10.90
2016,05,06,03,29,10.90
2016,05,06,03,30,10.90
2016,05,06,03,31,10.90
2016,05,06,03,32,10.80
2016,05,06,03,33,10.80
2016,05,06,03,34,10.80
2016,05,06,03,35,10.80
2016,05,06,03,36,10.80
2016,05,06,03,37,10.70
2016,05,06,03,38,10.70
2016,05,06,03,39,10.70
2016,05,06,03,40,10.70
2016,05,06,03,41,10.70
2016,05,06,03,42,10.60
2016,05,06,03,43,10.60
2016,05,06,03,44,10.60
2016,05,06,03,45,10.60
2016,05,06,03,46,10.70
2016,05,06,03,47,10.70
2016,05,06,03,48,10.80
2016,05,06,03,49,10.90
2016,05,06,03,50,10.90
2016,05,06,03,51,11.00
2016,05,06,03,52,11.00
2016,05,06,03,53,11.00
2016,05,06,03,54,11.10
2016,05,06,03,55,11.10
2016,05,06,03,56,11.10
2016,05,06,03,57,11.10
2016,05,06,03,58,11.00
2016,05,06,03,59,11.00
2016,05,06,04,00,11.00
2016,05,06,04,01,10.90
2016,05,06,04,02,10.90
2016,05,06,04,03,10.90
2016,05,06,04,04,10.80
2016,05,06,04,05,10.80
2016,05,06,04,06,10.80
2016,05,06,04,07,10.80
2016,05,06,04,08,10.80
2016,05,06,04,09,10.80
2016,05,06,04,10,10.80
2016,05,06,04,11,10.80
2016,05,06,04,12,10.80
2016,05,06,04,13,10.80
2016,05,06,04,14,10.80
2016,05,06,04,15,10.80
2016,05,06,04,16,10.80
2016,05,06,04,17,10.80
2016,05,06,04,18,10.80
2016,05,06,04,19,10.80
2016,05,06,04,20,10.80
2016,05,06,04,21,10.90
2016,05,06,04,22,10.90
2016,05,06,04,23,11.00
2016,05,06,04,24,11.00
2016,05,06,04,25,11.00
2016,05,06,04,26,11.00
2016,05,06,04,27,11.00
2016,05,06,04,28,10.90
2016,05,06,04,29,10.90
2016,05,06,04,30,10.90
2016,05,06,04,31,10.90
2016,05,06,04,32,10.90
2016,05,06,04,33,10.90
2016,05,06,04,34,10.80
2016,05,06,04,35,10.80
2016,05,06,04,36,10.80
2016,05,06,04,37,10.70
2016,05,06,04,38,10.70
2016,05,06,04,39,10.70
2016,05,06,04,40,10.70
2016,05,06,04,41,10.80
2016,05,06,04,42,10.80
2016,05,06,04,43,10.80
2016,05,06,04,44,10.80
2016,05,06,04,45,10.80
2016,05,06,04,46,10.80
2016,05,06,04,47,10.80
2016,05,06,04,48,10.80
2016,05,06,04,49,10.70
2016,05,06,04,50,10.70
2016,05,06,04,51,10.70
2016,05,06,04,52,10.70
2016,05,06,04,53,10.70
2016,05,06,04,54,10.60
2016,05,06,04,55,10.60
2016,05,06,04,56,10.60
2016,05,06,04,57,10.60
2016,05,06,04,58,10.60
2016,05,06,04,59,10.60
2016,05,06,05,00,10.50
2016,05,06,05,01,10.60
2016,05,06,05,02,10.60
2016,05,06,05,03,10.60
2016,05,06,05,04,10.60
2016,05,06,05,05,10.50
2016,05,06,05,06,10.60
2016,05,06,05,07,10.60
2016,05,06,05,08,10.60
2016,05,06,05,09,10.60
2016,05,06,05,10,10.60
2016,05,06,05,11,10.60
2016,05,06,05,12,10.60
2016,05,06,05,13,10.50
2016,05,06,05,14,10.40
2016,05,06,05,15,10.40
2016,05,06,05,16,10.40
2016,05,06,05,17,10.40
2016,05,06,05,18,10.40
2016,05,06,05,19,10.30
2016,05,06,05,20,10.30
2016,05,06,05,21,10.30
2016,05,06,05,22,10.30
2016,05,06,05,23,10.30
2016,05,06,05,24,10.30
2016,05,06,05,25,10.20
2016,05,06,05,26,10.20
2016,05,06,05,27,10.30
2016,05,06,05,28,10.20
2016,05,06,05,29,10.20
2016,05,06,05,30,10.10
2016,05,06,05,31,10.10
2016,05,06,05,32,10.00
2016,05,06,05,33,10.00
2016,05,06,05,34,9.90
2016,05,06,05,35,9.90
2016,05,06,05,36,9.90
2016,05,06,05,37,9.80
2016,05,06,05,38,9.80
2016,05,06,05,39,9.80
2016,05,06,05,40,9.80
2016,05,06,05,41,9.80
2016,05,06,05,42,9.70
2016,05,06,05,43,9.70
2016,05,06,05,44,9.70
2016,05,06,05,45,9.70
2016,05,06,05,46,9.70
2016,05,06,05,47,9.70
2016,05,06,05,48,9.70
2016,05,06,05,49,9.60
2016,05,06,05,50,9.60
2016,05,06,05,51,9.60
2016,05,06,05,52,9.60
2016,05,06,05,53,9.60
2016,05,06,05,54,9.60
2016,05,06,05,55,9.60
2016,05,06,05,56,9.70
2016,05,06,05,57,9.70
2016,05,06,05,58,9.70
2016,05,06,05,59,9.70
2016,05,06,06,00,9.60
2016,05,06,06,01,9.60
2016,05,06,06,02,9.60
2016,05,06,06,03,9.60
2016,05,06,06,04,9.60
2016,05,06,06,05,9.60
2016,05,06,06,06,9.60
2016,05,06,06,07,9.60
2016,05,06,06,08,9.60
2016,05,06,06,09,9.60
2016,05,06,06,10,9.70
2016,05,06,06,11,9.70
2016,05,06,06,12,9.70
2016,05,06,06,13,9.80
2016,05,06,06,14,9.80
2016,05,06,06,15,9.80
2016,05,06,06,16,9.80
2016,05,06,06,17,9.80
2016,05,06,06,18,9.90
2016,05,06,06,19,9.90
2016,05,06,06,20,10.00
2016,05,06,06,21,10.00
2016,05,06,06,22,10.00
2016,05,06,06,23,10.10
2016,05,06,06,24,10.10
2016,05,06,06,25,10.10
2016,05,06,06,26,10.20
2016,05,06,06,27,10.20
2016,05,06,06,28,10.10
2016,05,06,06,29,10.20
2016,05,06,06,30,10.20
2016,05,06,06,31,10.20
2016,05,06,06,32,10.20
2016,05,06,06,33,10.20
2016,05,06,06,34,10.20
2016,05,06,06,35,10.20
2016,05,06,06,36,10.20
2016,05,06,06,37,10.20
2016,05,06,06,38,10.20
2016,05,06,06,39,10.30
2016,05,06,06,40,10.30
2016,05,06,06,41,10.40
2016,05,06,06,42,10.40
2016,05,06,06,43,10.50
2016,05,06,06,44,10.50
2016,05,06,06,45,10.60
2016,05,06,06,46,10.70
2016,05,06,06,47,10.70
2016,05,06,06,48,10.80
2016,05,06,06,49,10.90
2016,05,06,06,50,11.00
2016,05,06,06,51,11.10
2016,05,06,06,52,11.10
2016,05,06,06,53,11.20
2016,05,06,06,54,11.30
2016,05,06,06,55,11.40
2016,05,06,06,56,11.50
2016,05,06,06,57,11.50
2016,05,06,06,58,11.60
2016,05,06,06,59,11.60
2016,05,06,07,00,11.60
2016,05,06,07,01,11.60
2016,05,06,07,02,11.60
2016,05,06,07,03,11.60
2016,05,06,07,04,11.60
2016,05,06,07,05,11.60
2016,05,06,07,06,11.60
2016,05,06,07,07,11.60
2016,05,06,07,08,11.60
2016,05,06,07,09,11.60
2016,05,06,07,10,11.60
2016,05,06,07,11,11.70
2016,05,06,07,12,11.70
2016,05,06,07,13,11.70
2016,05,06,07,14,11.80
2016,05,06,07,15,11.80
2016,05,06,07,16,11.90
2016,05,06,07,17,12.00
2016,05,06,07,18,12.00
2016,05,06,07,19,12.10
2016,05,06,07,20,12.10
2016,05,06,07,21,12.20
2016,05,06,07,22,12.30
2016,05,06,07,23,12.30
2016,05,06,07,24,12.40
2016,05,06,07,25,12.50
2016,05,06,07,26,12.60
2016,05,06,07,27,12.70
2016,05,06,07,28,12.80
2016,05,06,07,29,12.90
2016,05,06,07,30,13.00
2016,05,06,07,31,13.20
2016,05,06,07,32,13.30
2016,05,06,07,33,13.40
2016,05,06,07,34,13.50
2016,05,06,07,35,13.60
2016,05,06,07,36,13.70
2016,05,06,07,37,13.80
2016,05,06,07,38,13.80
2016,05,06,07,39,13.90
2016,05,06,07,40,14.00
2016,05,06,07,41,14.00
2016,05,06,07,42,14.10
2016,05,06,07,43,14.10
2016,05,06,07,44,14.10
2016,05,06,07,45,14.20
2016,05,06,07,46,14.20
2016,05,06,07,47,14.30
2016,05,06,07,48,14.30
2016,05,06,07,49,14.30
2016,05,06,07,50,14.40
2016,05,06,07,51,14.40
2016,05,06,07,52,14.40
2016,05,06,07,53,14.50
2016,05,06,07,54,14.50
2016,05,06,07,55,14.60
2016,05,06,07,56,14.60
2016,05,06,07,57,14.70
2016,05,06,07,58,14.70
2016,05,06,07,59,14.80
2016,05,06,08,00,14.80
2016,05,06,08,01,14.80
2016,05,06,08,02,14.90
2016,05,06,08,03,15.00
2016,05,06,08,04,15.10
2016,05,06,08,05,15.20
2016,05,06,08,06,15.30
2016,05,06,08,07,15.30
2016,05,06,08,08,15.40
2016,05,06,08,09,15.40
2016,05,06,08,10,15.50
2016,05,06,08,11,15.50
2016,05,06,08,12,15.60
2016,05,06,08,13,15.60
2016,05,06,08,14,15.60
2016,05,06,08,15,15.70
2016,05,06,08,16,15.70
2016,05,06,08,17,15.70
2016,05,06,08,18,15.80
2016,05,06,08,19,15.80
2016,05,06,08,20,15.90
2016,05,06,08,21,15.90
2016,05,06,08,22,15.90
2016,05,06,08,23,16.00
2016,05,06,08,24,16.00
2016,05,06,08,25,16.00
2016,05,06,08,26,16.00
2016,05,06,08,27,16.10
2016,05,06,08,28,16.10
2016,05,06,08,29,16.10
2016,05,06,08,30,16.10
2016,05,06,08,31,16.10
2016,05,06,08,32,16.20
2016,05,06,08,33,16.30
2016,05,06,08,34,16.40
2016,05,06,08,35,16.50
2016,05,06,08,36,16.60
2016,05,06,08,37,16.70
2016,05,06,08,38,16.80
2016,05,06,08,39,16.90
2016,05,06,08,40,17.10
2016,05,06,08,41,17.20
2016,05,06,08,42,17.40
2016,05,06,08,43,17.40
2016,05,06,08,44,17.50
2016,05,06,08,45,17.50
2016,05,06,08,46,17.60
2016,05,06,08,47,17.60
2016,05,06,08,48,17.70
2016,05,06,08,49,17.80
2016,05,06,08,50,17.80
2016,05,06,08,51,17.90
2016,05,06,08,52,17.90
2016,05,06,08,53,17.90
2016,05,06,08,54,17.90
2016,05,06,08,55,17.90
2016,05,06,08,56,17.90
2016,05,06,08,57,17.90
2016,05,06,08,58,17.90
2016,05,06,08,59,17.80
2016,05,06,09,00,17.80
2016,05,06,09,01,17.80
2016,05,06,09,02,17.70
2016,05,06,09,03,17.70
2016,05,06,09,04,17.70
2016,05,06,09,05,17.70
2016,05,06,09,06,17.70
2016,05,06,09,07,17.80
2016,05,06,09,08,17.80
2016,05,06,09,09,17.90
2016,05,06,09,10,18.00
2016,05,06,09,11,18.10
2016,05,06,09,12,18.20
2016,05,06,09,13,18.30
2016,05,06,09,14,18.30
2016,05,06,09,15,18.40
2016,05,06,09,16,18.50
2016,05,06,09,17,18.50
2016,05,06,09,18,18.60
2016,05,06,09,19,18.70
2016,05,06,09,20,18.80
2016,05,06,09,21,18.80
2016,05,06,09,22,18.90
2016,05,06,09,23,19.00
2016,05,06,09,24,19.10
2016,05,06,09,25,19.20
2016,05,06,09,26,19.20
2016,05,06,09,27,19.30
2016,05,06,09,28,19.30
2016,05,06,09,29,19.20
2016,05,06,09,30,19.10
2016,05,06,09,31,18.90
2016,05,06,09,32,18.70
2016,05,06,09,33,18.50
2016,05,06,09,34,18.30
2016,05,06,09,35,18.20
2016,05,06,09,36,18.10
2016,05,06,09,37,18.00
2016,05,06,09,38,17.90
2016,05,06,09,39,17.90
2016,05,06,09,40,17.90
2016,05,06,09,41,17.90
2016,05,06,09,42,18.00
2016,05,06,09,43,18.00
2016,05,06,09,44,18.10
2016,05,06,09,45,18.20
2016,05,06,09,46,18.20
2016,05,06,09,47,18.40
2016,05,06,09,48,18.50
2016,05,06,09,49,18.70
2016,05,06,09,50,18.80
2016,05,06,09,51,19.00
2016,05,06,09,52,19.10
2016,05,06,09,53,19.30
2016,05,06,09,54,19.40
2016,05,06,09,55,19.50
2016,05,06,09,56,19.50
2016,05,06,09,57,19.60
2016,05,06,09,58,19.60
2016,05,06,09,59,19.70
2016,05,06,10,00,19.80
2016,05,06,10,01,19.80
2016,05,06,10,02,19.60
2016,05,06,10,03,19.60
2016,05,06,10,04,19.50
2016,05,06,10,05,19.40
2016,05,06,10,06,19.30
2016,05,06,10,07,19.10
2016,05,06,10,08,18.90
2016,05,06,10,09,18.80
2016,05,06,10,10,18.80
2016,05,06,10,11,18.70
2016,05,06,10,12,18.70
2016,05,06,10,13,18.70
2016,05,06,10,14,18.80
2016,05,06,10,15,18.80
2016,05,06,10,16,18.80
2016,05,06,10,17,18.80
2016,05,06,10,18,18.80
2016,05,06,10,19,18.80
2016,05,06,10,20,18.90
2016,05,06,10,21,18.90
2016,05,06,10,22,18.90
2016,05,06,10,23,18.80
2016,05,06,10,24,18.70
2016,05,06,10,25,18.70
2016,05,06,10,26,18.50
2016,05,06,10,27,18.40
2016,05,06,10,28,18.30
2016,05,06,10,29,18.20
2016,05,06,10,30,18.10
2016,05,06,10,31,18.00
2016,05,06,10,32,18.00
2016,05,06,10,33,17.90
2016,05,06,10,34,17.90
2016,05,06,10,35,17.90
2016,05,06,10,36,17.90
2016,05,06,10,37,17.90
2016,05,06,10,38,17.90
2016,05,06,10,39,18.00
2016,05,06,10,40,18.10
2016,05,06,10,41,18.20
2016,05,06,10,42,18.30
2016,05,06,10,43,18.20
2016,05,06,10,44,18.10
2016,05,06,10,45,18.00
2016,05,06,10,46,17.90
2016,05,06,10,47,17.90
2016,05,06,10,48,17.80
2016,05,06,10,49,17.90
2016,05,06,10,50,17.90
2016,05,06,10,51,17.90
2016,05,06,10,52,17.90
2016,05,06,10,53,18.00
2016,05,06,10,54,18.10
2016,05,06,10,55,18.20
2016,05,06,10,56,18.40
2016,05,06,10,57,18.50
2016,05,06,10,58,18.60
2016,05,06,10,59,18.70
2016,05,06,11,00,18.70
2016,05,06,11,01,18.80
2016,05,06,11,02,18.80
2016,05,06,11,03,18.90
2016,05,06,11,04,19.00
2016,05,06,11,05,19.20
2016,05,06,11,06,19.30
2016,05,06,11,07,19.40
2016,05,06,11,08,19.50
2016,05,06,11,09,19.50
2016,05,06,11,10,19.50
2016,05,06,11,11,19.50
2016,05,06,11,12,19.50
2016,05,06,11,13,19.40
2016,05,06,11,14,19.40
2016,05,06,11,15,19.30
2016,05,06,11,16,19.30
2016,05,06,11,17,19.10
2016,05,06,11,18,19.00
2016,05,06,11,19,18.90
2016,05,06,11,20,18.70
2016,05,06,11,21,18.60
2016,05,06,11,22,18.60
2016,05,06,11,23,18.60
2016,05,06,11,24,18.60
2016,05,06,11,25,18.60
2016,05,06,11,26,18.60
2016,05,06,11,27,18.60
2016,05,06,11,28,18.70
2016,05,06,11,29,18.80
2016,05,06,11,30,18.80
2016,05,06,11,31,18.90
2016,05,06,11,32,18.80
2016,05,06,11,33,18.80
2016,05,06,11,34,18.80
2016,05,06,11,35,18.90
2016,05,06,11,36,18.80
2016,05,06,11,37,18.80
2016,05,06,11,38,18.80
2016,05,06,11,39,18.80
2016,05,06,11,40,18.80
2016,05,06,11,41,18.80
2016,05,06,11,42,18.90
2016,05,06,11,43,19.00
2016,05,06,11,44,19.00
2016,05,06,11,45,19.10
2016,05,06,11,46,19.20
2016,05,06,11,47,19.30
2016,05,06,11,48,19.50
2016,05,06,11,49,19.50
2016,05,06,11,50,19.50
2016,05,06,11,51,19.50
2016,05,06,11,52,19.50
2016,05,06,11,53,19.40
2016,05,06,11,54,19.40
2016,05,06,11,55,19.40
2016,05,06,11,56,19.40
2016,05,06,11,57,19.40
2016,05,06,11,58,19.40
2016,05,06,11,59,19.40
2016,05,06,12,00,19.40
2016,05,06,12,01,19.40
2016,05,06,12,02,19.50
2016,05,06,12,03,19.40
2016,05,06,12,04,19.40
2016,05,06,12,05,19.30
2016,05,06,12,06,19.20
2016,05,06,12,07,19.30
2016,05,06,12,08,19.30
2016,05,06,12,09,19.40
2016,05,06,12,10,19.50
2016,05,06,12,11,19.60
2016,05,06,12,12,19.70
2016,05,06,12,13,19.70
2016,05,06,12,14,19.70
2016,05,06,12,15,19.70
2016,05,06,12,16,19.70
2016,05,06,12,17,19.70
2016,05,06,12,18,19.80
2016,05,06,12,19,19.80
2016,05,06,12,20,19.80
2016,05,06,12,21,19.80
2016,05,06,12,22,19.90
2016,05,06,12,23,19.90
2016,05,06,12,24,19.90
2016,05,06,12,25,19.90
2016,05,06,12,26,20.00
2016,05,06,12,27,20.00
2016,05,06,12,28,20.10
2016,05,06,12,29,20.20
2016,05,06,12,30,20.20
2016,05,06,12,31,20.10
2016,05,06,12,32,20.10
2016,05,06,12,33,20.10
2016,05,06,12,34,20.10
2016,05,06,12,35,20.30
2016,05,06,12,36,20.40
2016,05,06,12,37,20.50
2016,05,06,12,38,20.60
2016,05,06,12,39,20.50
2016,05,06,12,40,20.40
2016,05,06,12,41,20.40
2016,05,06,12,42,20.50
2016,05,06,12,43,20.70
2016,05,06,12,44,20.80
2016,05,06,12,45,20.80
2016,05,06,12,46,20.80
2016,05,06,12,47,20.80
2016,05,06,12,48,20.70
2016,05,06,12,49,20.70
2016,05,06,12,50,20.70
2016,05,06,12,51,20.80
2016,05,06,12,52,20.90
2016,05,06,12,53,20.90
2016,05,06,12,54,20.80
2016,05,06,12,55,20.80
2016,05,06,12,56,20.70
2016,05,06,12,57,20.70
2016,05,06,12,58,20.70
2016,05,06,12,59,20.60
2016,05,06,13,00,20.50
2016,05,06,13,01,20.40
2016,05,06,13,02,20.40
2016,05,06,13,03,20.50
2016,05,06,13,04,20.70
2016,05,06,13,05,20.70
2016,05,06,13,06,20.70
2016,05,06,13,07,20.80
2016,05,06,13,08,20.80
2016,05,06,13,09,20.70
2016,05,06,13,10,20.70
2016,05,06,13,11,20.70
2016,05,06,13,12,20.80
2016,05,06,13,13,20.90
2016,05,06,13,14,21.00
2016,05,06,13,15,21.20
2016,05,06,13,16,21.30
2016,05,06,13,17,21.40
2016,05,06,13,18,21.40
2016,05,06,13,19,21.40
2016,05,06,13,20,21.40
2016,05,06,13,21,21.30
2016,05,06,13,22,21.20
2016,05,06,13,23,21.30
2016,05,06,13,24,21.30
2016,05,06,13,25,21.30
2016,05,06,13,26,21.30
2016,05,06,13,27,21.30
2016,05,06,13,28,21.30
2016,05,06,13,29,21.20
2016,05,06,13,30,21.20
2016,05,06,13,31,21.20
2016,05,06,13,32,21.10
2016,05,06,13,33,21.00
2016,05,06,13,34,20.90
2016,05,06,13,35,20.90
2016,05,06,13,36,20.90
2016,05,06,13,37,21.00
2016,05,06,13,38,21.00
2016,05,06,13,39,21.10
2016,05,06,13,40,21.00
2016,05,06,13,41,21.00
2016,05,06,13,42,21.00
2016,05,06,13,43,21.10
2016,05,06,13,44,21.20
2016,05,06,13,45,21.30
2016,05,06,13,46,21.40
2016,05,06,13,47,21.50
2016,05,06,13,48,21.40
2016,05,06,13,49,21.40
2016,05,06,13,50,21.30
2016,05,06,13,51,21.20
2016,05,06,13,52,21.00
2016,05,06,13,53,21.00
2016,05,06,13,54,21.10
2016,05,06,13,55,21.20
2016,05,06,13,56,21.10
2016,05,06,13,57,21.10
2016,05,06,13,58,21.10
2016,05,06,13,59,21.10
2016,05,06,14,00,21.00
2016,05,06,14,01,20.90
2016,05,06,14,02,20.80
2016,05,06,14,03,20.70
2016,05,06,14,04,20.60
2016,05,06,14,05,20.60
2016,05,06,14,06,20.60
2016,05,06,14,07,20.70
2016,05,06,14,08,20.80
2016,05,06,14,09,21.00
2016,05,06,14,10,21.10
2016,05,06,14,11,21.20
2016,05,06,14,12,21.30
2016,05,06,14,13,21.30
2016,05,06,14,14,21.30
2016,05,06,14,15,21.40
2016,05,06,14,16,21.50
2016,05,06,14,17,21.60
2016,05,06,14,18,21.60
2016,05,06,14,19,21.70
2016,05,06,14,20,21.80
2016,05,06,14,21,21.80
2016,05,06,14,22,21.80
2016,05,06,14,23,21.90
2016,05,06,14,24,21.90
2016,05,06,14,25,21.90
2016,05,06,14,26,21.90
2016,05,06,14,27,21.80
2016,05,06,14,28,21.80
2016,05,06,14,29,21.70
2016,05,06,14,30,21.60
2016,05,06,14,31,21.60
2016,05,06,14,32,21.70
2016,05,06,14,33,21.70
2016,05,06,14,34,21.60
2016,05,06,14,35,21.60
2016,05,06,14,36,21.60
2016,05,06,14,37,21.60
2016,05,06,14,38,21.70
2016,05,06,14,39,21.80
2016,05,06,14,40,22.00
2016,05,06,14,41,22.00
2016,05,06,14,42,22.00
2016,05,06,14,43,21.90
2016,05,06,14,44,21.80
2016,05,06,14,45,21.60
2016,05,06,14,46,21.50
2016,05,06,14,47,21.40
2016,05,06,14,48,21.40
2016,05,06,14,49,21.40
2016,05,06,14,50,21.50
2016,05,06,14,51,21.60
2016,05,06,14,52,21.70
2016,05,06,14,53,21.70
2016,05,06,14,54,21.50
2016,05,06,14,55,21.40
2016,05,06,14,56,21.40
2016,05,06,14,57,21.50
2016,05,06,14,58,21.60
2016,05,06,14,59,21.80
2016,05,06,15,00,21.90
2016,05,06,15,01,22.00
2016,05,06,15,02,22.00
2016,05,06,15,03,22.10
2016,05,06,15,04,22.10
2016,05,06,15,05,22.10
2016,05,06,15,06,22.10
2016,05,06,15,07,22.10
2016,05,06,15,08,22.10
2016,05,06,15,09,22.10
2016,05,06,15,10,22.10
2016,05,06,15,11,22.20
2016,05,06,15,12,22.20
2016,05,06,15,13,22.30
2016,05,06,15,14,22.30
2016,05,06,15,15,22.20
2016,05,06,15,16,22.10
2016,05,06,15,17,22.10
2016,05,06,15,18,22.10
2016,05,06,15,19,22.00
2016,05,06,15,20,21.90
2016,05,06,15,21,21.80
2016,05,06,15,22,21.80
2016,05,06,15,23,21.80
2016,05,06,15,24,21.80
2016,05,06,15,25,21.80
2016,05,06,15,26,21.70
2016,05,06,15,27,21.60
2016,05,06,15,28,21.70
2016,05,06,15,29,21.80
2016,05,06,15,30,21.80
2016,05,06,15,31,21.80
2016,05,06,15,32,21.80
2016,05,06,15,33,21.80
2016,05,06,15,34,21.80
2016,05,06,15,35,21.80
2016,05,06,15,36,21.80
2016,05,06,15,37,21.90
2016,05,06,15,38,21.80
2016,05,06,15,39,21.70
2016,05,06,15,40,21.60
2016,05,06,15,41,21.50
2016,05,06,15,42,21.40
2016,05,06,15,43,21.30
2016,05,06,15,44,21.30
2016,05,06,15,45,21.30
2016,05,06,15,46,21.40
2016,05,06,15,47,21.60
2016,05,06,15,48,21.60
2016,05,06,15,49,21.80
2016,05,06,15,50,21.90
2016,05,06,15,51,22.00
2016,05,06,15,52,22.10
2016,05,06,15,53,22.10
2016,05,06,15,54,21.90
2016,05,06,15,55,21.80
2016,05,06,15,56,21.70
2016,05,06,15,57,21.70
2016,05,06,15,58,21.80
2016,05,06,15,59,22.00
2016,05,06,16,00,22.10
2016,05,06,16,01,22.20
2016,05,06,16,02,22.10
2016,05,06,16,03,21.90
2016,05,06,16,04,21.80
2016,05,06,16,05,21.70
2016,05,06,16,06,21.70
2016,05,06,16,07,21.80
2016,05,06,16,08,21.90
2016,05,06,16,09,21.90
2016,05,06,16,10,21.80
2016,05,06,16,11,21.80
2016,05,06,16,12,21.90
2016,05,06,16,13,22.00
2016,05,06,16,14,22.10
2016,05,06,16,15,22.30
2016,05,06,16,16,22.30
2016,05,06,16,17,22.40
2016,05,06,16,18,22.40
2016,05,06,16,19,22.40
2016,05,06,16,20,22.40
2016,05,06,16,21,22.50
2016,05,06,16,22,22.60
2016,05,06,16,23,22.60
2016,05,06,16,24,22.60
2016,05,06,16,25,22.50
2016,05,06,16,26,22.40
2016,05,06,16,27,22.40
2016,05,06,16,28,22.50
2016,05,06,16,29,22.50
2016,05,06,16,30,22.40
2016,05,06,16,31,22.30
2016,05,06,16,32,22.20
2016,05,06,16,33,22.10
2016,05,06,16,34,22.10
2016,05,06,16,35,22.10
2016,05,06,16,36,22.20
2016,05,06,16,37,22.30
2016,05,06,16,38,22.30
2016,05,06,16,39,22.40
2016,05,06,16,40,22.40
2016,05,06,16,41,22.50
2016,05,06,16,42,22.50
2016,05,06,16,43,22.50
2016,05,06,16,44,22.50
2016,05,06,16,45,22.60
2016,05,06,16,46,22.70
2016,05,06,16,47,22.80
2016,05,06,16,48,22.90
2016,05,06,16,49,23.10
2016,05,06,16,50,23.20
2016,05,06,16,51,23.20
2016,05,06,16,52,23.30
2016,05,06,16,53,23.20
2016,05,06,16,54,23.10
2016,05,06,16,55,23.00
2016,05,06,16,56,22.90
2016,05,06,16,57,23.00
2016,05,06,16,58,23.00
2016,05,06,16,59,22.90
2016,05,06,17,00,22.80
2016,05,06,17,01,22.80
2016,05,06,17,02,22.70
2016,05,06,17,03,22.70
2016,05,06,17,04,22.70
2016,05,06,17,05,22.70
2016,05,06,17,06,22.80
2016,05,06,17,07,22.90
2016,05,06,17,08,22.90
2016,05,06,17,09,22.90
2016,05,06,17,10,22.90
2016,05,06,17,11,22.90
2016,05,06,17,12,22.90
2016,05,06,17,13,23.00
2016,05,06,17,14,23.10
2016,05,06,17,15,23.20
2016,05,06,17,16,23.30
2016,05,06,17,17,23.40
2016,05,06,17,18,23.40
2016,05,06,17,19,23.40
2016,05,06,17,20,23.50
2016,05,06,17,21,23.50